Regional Weather Roundup
Issued by NWS Newport/Morehead, NC

Current Version | Previous Version | Graphics & Text | Print | Product List | Glossary Off
Versions: 1 2 3 4 5 6 7 8 9 10 11 12 13 14 15 16 17 18 19 20 21 22 23 24 25 26 27 28 29 30 31 32 33 34 35 36 37 38 39 40 41 42 43 44 45 46 47 48 49 50

281
ASUS42 KMHX 301525
RWRMHX
WEATHER ROUNDUP FOR EASTERN NORTH CAROLINA
NATIONAL WEATHER SERVICE NEWPORT/MOREHEAD CITY NC
1100 AM EDT MON MAY 30 2016

NOTE: "FAIR" INDICATES FEW OR NO CLOUDS BELOW 12,000 FEET
WITH NO SIGNIFICANT WEATHER AND/OR OBSTRUCTIONS TO VISIBILITY

NCZ015>017-031-032-045>047-102-103-301600-
NORTH COAST

CITY           SKY/WX    TMP DP  RH WIND       PRES   REMARKS
EDENTON        RAIN     N/A N/A N/A SE6       30.03S
ELIZABETH CITY LGT RAIN  74  71  91 SE8       30.03S
KITTY HAWK     LGT RAIN  71  70  96 SE3       30.02F
MANTEO         NOT AVBL

$$

NCZ045>047-081-094-103-104-301600-
CENTRAL COAST

CITY           SKY/WX    TMP DP  RH WIND       PRES   REMARKS
FRISCO         RAIN      72  71  97 S6        30.03F

$$

NCZ095-097-098-100-101-301600-
SOUTHERN COAST

CITY           SKY/WX    TMP DP  RH WIND       PRES   REMARKS
BEAUFORT       CLOUDY    79  72  79 E8        29.99F
CEDAR ISLAND   NOT AVBL
JACKSONVILLE   CLOUDY    81  71  71 SE9       29.96F
PINEY ISLAND   LGT RAIN N/A N/A N/A E7        30.01
WILMINGTON     PTSUNNY   81  69  67 SE9       29.96S


$$

NCZ011>013-027>030-043-044-078>080-089-090>093-098-301600-
COASTAL PLAIN

CITY           SKY/WX    TMP DP  RH WIND       PRES   REMARKS
AHOSKIE        CLOUDY    75  71  85 SE5       30.01S
CLINTON        MOSUNNY   81  72  74 E5        29.97S
ELIZABETHTOWN  CLOUDY    80  70  70 SE8       29.96R
GOLDSBORO      PTSUNNY   81  74  78 E9        29.97F
GREENVILLE     MOSUNNY   79  72  78 SE6       30.01F
HAVELOCK       PTSUNNY   80  72  76 SE8       30.00S
KENANSVILLE    MOSUNNY   78  71  80 CALM      29.99S
KINSTON        CLOUDY    81  73  78 E5        29.99F
NEW BERN       CLOUDY    78  69  73 E7        30.01S
RICHLANDS      LGT RAIN  77  72  84 CALM      29.98F
ROCKY MOUNT    CLOUDY    79  71  76 VRB6      29.99F
WASHINGTON     MOSUNNY   76  72  86 E8        30.00F
WHITEVILLE     CLOUDY    79  70  74 E10       29.95R

$$

AMZ130-135-150-152-154-156-158-170-250-252-270-ANZ085-086-088-633-658-670-301600-
MARINE OBSERVATIONS

STATION/POSITION TIME  TEMP    WIND        PRES    WAVE   SWELL
                       AIR SEA DIR/SP/G            HT/PER HT/PER
                 (UTC) (F)     (DEG/KT/KT) (MB)    (FT/S) (FT/S)
CHESAPEAKE LIGHT 1500   70     160/ 10/ 10 1017.7
64 E VA BEACH    1450   67 63  190/ 10/ 12 1017.4    5/ 6   5/ 6
DUCK             1500   65 58  150/  8/  9 1016.4
2 E DUCK         1411      62                N/A     3/ 8
OREGON INLET     1500   72 77  110/  3/  6 1016.6
13E OREGON INLT  1500      66                N/A     5/ 7   5/ 7
HATTERAS CG      1500   72 76  150/  3/  4 1016.2
DIAMOND BUOY     1450   73 80  250/ 10/ 14 1016.7    6/ 7   5/ 7
CAPE LOOKOUT     1500   72      90/ 11/ 13 1015.6
BEAUFORT LAB     1500   77 76  110/  8/ 12 1014.8
30 SE NEW RVR IN 1425      76                N/A     6/ 8
27 SE WRIGHTSVLE 1508   78 76  170/  4/  8 1015.0
5 SE WRIGHTSVLE  1408   77 76  180/  8/ 10 1015.4
225 S CAPE HAT   1450   73 75  130/ 12/ 14 1016.7    5/ 8   3/ 8
41 SE CHARLESTON 1450   73 77  240/ 12/ 14 1013.5    4/ 8   3/ 8

$$




USA.gov is the U.S. government's official web portal to all federal, state and local government web resources and services.